Time,TemperatureF,DewpointF,PressureIn,WindDirection,WindDirectionDegrees,WindSpeedMPH,WindSpeedGustMPH,Humidity,HourlyPrecipIn,Conditions,Clouds,dailyrainin,SoftwareType,DateUTC
2013-01-19 00:02:00,13.0,3.0,-100.00,WNW,295,2.0,3.0,64,0.00,,,-99.99,,2013-01-19 07:02:00,
2013-01-19 00:12:00,15.0,3.0,-100.00,West,270,1.0,2.0,58,0.00,,,-99.99,,2013-01-19 07:12:00,
2013-01-19 00:22:00,18.0,3.0,-100.00,West,275,2.0,3.0,51,0.00,,,-99.99,,2013-01-19 07:22:00,
2013-01-19 00:32:00,18.0,2.0,-100.00,NW,325,1.0,3.0,49,0.00,,,-99.99,,2013-01-19 07:32:00,
2013-01-19 00:42:00,17.0,1.0,-100.00,West,270,2.0,4.0,49,0.00,,,-99.99,,2013-01-19 07:42:00,
2013-01-19 00:53:00,12.0,-1.0,-100.00,NNE,30,0.0,1.0,54,0.00,,,-99.99,,2013-01-19 07:53:00,
2013-01-19 01:02:00,11.0,-1.0,-100.00,WSW,240,1.0,4.0,56,0.00,,,-99.99,,2013-01-19 08:02:00,
2013-01-19 01:12:00,10.0,-1.0,-100.00,NE,50,0.0,2.0,59,0.00,,,-99.99,,2013-01-19 08:12:00,
2013-01-19 01:22:00,11.0,0.0,-100.00,SW,235,0.0,2.0,60,0.00,,,-99.99,,2013-01-19 08:22:00,
2013-01-19 01:32:00,11.0,1.0,-100.00,SW,225,1.0,3.0,61,0.00,,,-99.99,,2013-01-19 08:32:00,
2013-01-19 01:43:00,10.0,-1.0,-100.00,South,190,0.0,2.0,61,0.00,,,-99.99,,2013-01-19 08:43:00,
2013-01-19 01:53:00,9.0,-1.0,-100.00,SSW,200,0.0,1.0,63,0.00,,,-99.99,,2013-01-19 08:53:00,
2013-01-19 02:02:00,10.0,0.0,-100.00,SW,225,0.0,2.0,63,0.00,,,-99.99,,2013-01-19 09:02:00,
2013-01-19 02:12:00,9.0,0.0,-100.00,South,185,1.0,4.0,64,0.00,,,-99.99,,2013-01-19 09:12:00,
2013-01-19 02:23:00,9.0,-1.0,-100.00,WSW,240,2.0,4.0,65,0.00,,,-99.99,,2013-01-19 09:23:00,
2013-01-19 02:32:00,9.0,0.0,-100.00,WNW,300,0.0,2.0,65,0.00,,,-99.99,,2013-01-19 09:32:00,
2013-01-19 02:42:00,9.0,0.0,-100.00,SSE,155,0.0,4.0,65,0.00,,,-99.99,,2013-01-19 09:42:00,
2013-01-19 02:52:00,8.0,-1.0,-100.00,SW,235,0.0,1.0,65,0.00,,,-99.99,,2013-01-19 09:52:00,
2013-01-19 03:02:00,8.0,-1.0,-100.00,South,190,0.0,0.0,66,0.00,,,-99.99,,2013-01-19 10:02:00,
2013-01-19 03:12:00,8.0,0.0,-100.00,South,190,0.0,1.0,67,0.00,,,-99.99,,2013-01-19 10:12:00,
2013-01-19 03:22:00,8.0,-1.0,-100.00,SSW,200,0.0,0.0,67,0.00,,,-99.99,,2013-01-19 10:22:00,
2013-01-19 03:32:00,8.0,-1.0,-100.00,South,175,0.0,1.0,68,0.00,,,-99.99,,2013-01-19 10:32:00,
2013-01-19 03:42:00,8.0,0.0,-100.00,SW,235,0.0,1.0,68,0.00,,,-99.99,,2013-01-19 10:42:00,
2013-01-19 03:53:00,10.0,1.0,-100.00,SW,230,0.0,1.0,66,0.00,,,-99.99,,2013-01-19 10:53:00,
2013-01-19 04:03:00,10.0,1.0,-100.00,WSW,255,0.0,2.0,66,0.00,,,-99.99,,2013-01-19 11:03:00,
2013-01-19 04:12:00,13.0,2.0,-100.00,West,265,3.0,5.0,62,0.00,,,-99.99,,2013-01-19 11:12:00,
2013-01-19 05:48:00,10.0,1.0,-100.00,WSW,245,0.0,0.0,65,0.00,,,-99.99,,2013-01-19 12:48:00,
2013-01-19 05:53:00,10.0,1.0,-100.00,SW,230,0.0,1.0,65,0.00,,,-99.99,,2013-01-19 12:53:00,
2013-01-19 06:03:00,10.0,1.0,-100.00,West,280,0.0,1.0,65,0.00,,,-99.99,,2013-01-19 13:03:00,
2013-01-19 06:12:00,11.0,1.0,-100.00,WSW,240,0.0,1.0,65,0.00,,,-99.99,,2013-01-19 13:12:00,
2013-01-19 06:22:00,11.0,1.0,-100.00,SW,225,1.0,2.0,65,0.00,,,-99.99,,2013-01-19 13:22:00,
2013-01-19 06:33:00,11.0,1.0,-100.00,WNW,285,0.0,1.0,64,0.00,,,-99.99,,2013-01-19 13:33:00,
2013-01-19 06:42:00,11.0,1.0,-100.00,SW,230,1.0,2.0,63,0.00,,,-99.99,,2013-01-19 13:42:00,
2013-01-19 06:53:00,12.0,1.0,-100.00,SW,215,2.0,2.0,62,0.00,,,-99.99,,2013-01-19 13:53:00,
2013-01-19 07:02:00,13.0,2.0,-100.00,SW,225,0.0,2.0,60,0.00,,,-99.99,,2013-01-19 14:02:00,
2013-01-19 07:12:00,11.0,1.0,-100.00,SW,225,1.0,2.0,61,0.00,,,-99.99,,2013-01-19 14:12:00,
2013-01-19 07:23:00,11.0,1.0,-100.00,SSW,200,1.0,2.0,63,0.00,,,-99.99,,2013-01-19 14:23:00,
2013-01-19 07:34:00,11.0,1.0,-100.00,SSW,200,0.0,0.0,64,0.00,,,-99.99,,2013-01-19 14:34:00,
2013-01-19 07:43:00,10.0,1.0,-100.00,WSW,245,0.0,0.0,65,0.00,,,-99.99,,2013-01-19 14:43:00,
2013-01-19 07:53:00,13.0,2.0,-100.00,West,275,3.0,5.0,63,0.00,,,-99.99,,2013-01-19 14:53:00,
2013-01-19 08:03:00,15.0,3.0,-100.00,West,280,0.0,5.0,59,0.00,,,-99.99,,2013-01-19 15:03:00,
2013-01-19 08:12:00,14.0,2.0,-100.00,SSE,155,0.0,1.0,60,0.00,,,-99.99,,2013-01-19 15:12:00,
2013-01-19 08:23:00,14.0,3.0,-100.00,SSW,205,0.0,2.0,60,0.00,,,-99.99,,2013-01-19 15:23:00,
2013-01-19 08:33:00,17.0,5.0,-100.00,SSW,210,1.0,2.0,60,0.00,,,-99.99,,2013-01-19 15:33:00,
2013-01-19 08:43:00,19.0,6.0,-100.00,ESE,115,0.0,2.0,58,0.00,,,-99.99,,2013-01-19 15:43:00,
2013-01-19 08:53:00,22.0,7.0,-100.00,NNW,330,0.0,2.0,52,0.00,,,-99.99,,2013-01-19 15:53:00,
2013-01-19 09:03:00,24.0,8.0,-100.00,SE,125,2.0,4.0,50,0.00,,,-99.99,,2013-01-19 16:03:00,
2013-01-19 09:13:00,26.0,8.0,-100.00,ENE,60,3.0,6.0,46,0.00,,,-99.99,,2013-01-19 16:13:00,
2013-01-19 09:23:00,28.0,8.0,-100.00,East,100,4.0,9.0,42,0.00,,,-99.99,,2013-01-19 16:23:00,
2013-01-19 09:33:00,29.0,8.0,-100.00,NE,40,3.0,7.0,41,0.00,,,-99.99,,2013-01-19 16:33:00,
2013-01-19 09:43:00,30.0,9.0,-100.00,East,95,6.0,11.0,39,0.00,,,-99.99,,2013-01-19 16:43:00,
2013-01-19 09:54:00,30.0,9.0,-100.00,East,95,6.0,11.0,39,0.00,,,-99.99,,2013-01-19 16:54:00,
2013-01-19 10:02:00,32.0,9.0,-100.00,ENE,65,7.0,13.0,37,0.00,,,-99.99,,2013-01-19 17:02:00,
2013-01-19 10:19:00,32.0,9.0,-100.00,East,80,7.0,12.0,38,0.00,,,-99.99,,2013-01-19 17:19:00,
2013-01-19 10:28:00,33.0,10.0,-100.00,East,90,7.0,12.0,37,0.00,,,-99.99,,2013-01-19 17:28:00,
2013-01-19 10:35:00,34.0,10.0,-100.00,NE,50,3.0,11.0,36,0.00,,,-99.99,,2013-01-19 17:35:00,
2013-01-19 10:47:00,35.0,10.0,-100.00,NE,40,3.0,9.0,34,0.00,,,-99.99,,2013-01-19 17:47:00,
2013-01-19 10:55:00,36.0,11.0,-100.00,East,95,7.0,12.0,34,0.00,,,-99.99,,2013-01-19 17:55:00,
2013-01-19 11:09:00,36.0,11.0,-100.00,ENE,70,5.0,14.0,34,0.00,,,-99.99,,2013-01-19 18:09:00,
2013-01-19 11:35:00,42.0,13.0,-100.00,East,95,6.0,12.0,30,0.00,,,-99.99,,2013-01-19 18:35:00,
2013-01-19 11:45:00,43.0,13.0,-100.00,East,80,7.0,12.0,30,0.00,,,-99.99,,2013-01-19 18:45:00,
2013-01-19 12:00:00,45.0,14.0,-100.00,East,90,6.0,11.0,28,0.00,,,-99.99,,2013-01-19 19:00:00,
2013-01-19 12:08:00,46.0,14.0,-100.00,East,100,7.0,12.0,27,0.00,,,-99.99,,2013-01-19 19:08:00,
2013-01-19 12:18:00,48.0,16.0,-100.00,ENE,75,6.0,9.0,26,0.00,,,-99.99,,2013-01-19 19:18:00,
2013-01-19 12:19:00,48.0,13.0,-100.00,East,100,6.0,10.0,23,0.00,,,-99.99,,2013-01-19 19:19:00,
2013-01-19 12:29:00,48.0,14.0,-100.00,ESE,105,4.0,9.0,25,0.00,,,-99.99,,2013-01-19 19:29:00,
2013-01-19 12:38:00,48.0,14.0,-100.00,ESE,110,4.0,7.0,24,0.00,,,-99.99,,2013-01-19 19:38:00,
2013-01-19 12:45:00,48.0,13.0,-100.00,East,100,6.0,10.0,23,0.00,,,-99.99,,2013-01-19 19:45:00,
2013-01-19 12:57:00,48.0,13.0,-100.00,East,100,6.0,10.0,23,0.00,,,-99.99,,2013-01-19 19:57:00,
2013-01-19 13:09:00,48.0,13.0,-100.00,East,100,6.0,10.0,23,0.00,,,-99.99,,2013-01-19 20:09:00,
2013-01-19 14:07:00,46.0,4.0,-100.00,SW,225,4.0,11.0,17,0.00,,,-99.99,,2013-01-19 21:07:00,
2013-01-19 14:14:00,46.0,4.0,-100.00,ENE,70,2.0,5.0,17,0.00,,,-99.99,,2013-01-19 21:14:00,
2013-01-19 14:26:00,47.0,5.0,-100.00,East,100,6.0,8.0,18,0.00,,,-99.99,,2013-01-19 21:26:00,
2013-01-19 14:42:00,47.0,7.0,-100.00,ESE,105,4.0,8.0,19,0.00,,,-99.99,,2013-01-19 21:42:00,
2013-01-19 14:50:00,47.0,9.0,-100.00,ESE,110,4.0,7.0,20,0.00,,,-99.99,,2013-01-19 21:50:00,
2013-01-19 15:00:00,42.0,6.0,-100.00,SW,215,7.0,9.0,22,0.00,,,-99.99,,2013-01-19 22:00:00,
2013-01-19 15:12:00,40.0,7.0,-100.00,SSW,205,6.0,10.0,24,0.00,,,-99.99,,2013-01-19 22:12:00,
2013-01-19 15:18:00,39.0,7.0,-100.00,WSW,255,8.0,16.0,25,0.00,,,-99.99,,2013-01-19 22:18:00,
2013-01-19 15:34:00,38.0,8.0,-100.00,WSW,240,6.0,13.0,27,0.00,,,-99.99,,2013-01-19 22:34:00,
2013-01-19 15:46:00,38.0,8.0,-100.00,SSW,200,6.0,11.0,28,0.00,,,-99.99,,2013-01-19 22:46:00,
2013-01-19 15:54:00,38.0,9.0,-100.00,SW,235,4.0,9.0,29,0.00,,,-99.99,,2013-01-19 22:54:00,
2013-01-19 16:12:00,38.0,8.0,-100.00,West,260,6.0,9.0,29,0.00,,,-99.99,,2013-01-19 23:12:00,
2013-01-19 16:25:00,36.0,8.0,-100.00,SSW,205,5.0,8.0,31,0.00,,,-99.99,,2013-01-19 23:25:00,
2013-01-19 16:34:00,35.0,8.0,-100.00,SW,220,4.0,9.0,32,0.00,,,-99.99,,2013-01-19 23:34:00,
2013-01-19 16:45:00,34.0,7.0,-100.00,SSW,205,6.0,9.0,32,0.00,,,-99.99,,2013-01-19 23:45:00,
2013-01-19 17:07:00,31.0,7.0,-100.00,SW,215,6.0,7.0,35,0.00,,,-99.99,,2013-01-20 00:07:00,
2013-01-19 17:15:00,28.0,8.0,-100.00,SW,230,4.0,7.0,41,0.00,,,-99.99,,2013-01-20 00:15:00,
2013-01-19 17:25:00,28.0,10.0,-100.00,SW,220,5.0,7.0,45,0.00,,,-99.99,,2013-01-20 00:25:00,
2013-01-19 17:45:00,27.0,10.0,-100.00,SW,235,5.0,8.0,46,0.00,,,-99.99,,2013-01-20 00:45:00,
2013-01-19 17:53:00,28.0,10.0,-100.00,SW,230,5.0,10.0,46,0.00,,,-99.99,,2013-01-20 00:53:00,
2013-01-19 18:03:00,27.0,9.0,-100.00,SW,215,5.0,9.0,46,0.00,,,-99.99,,2013-01-20 01:03:00,
2013-01-19 18:19:00,25.0,8.0,-100.00,SW,215,5.0,7.0,48,0.00,,,-99.99,,2013-01-20 01:19:00,
2013-01-19 18:25:00,24.0,8.0,-100.00,SSW,205,3.0,6.0,49,0.00,,,-99.99,,2013-01-20 01:25:00,
2013-01-19 18:35:00,24.0,8.0,-100.00,SW,225,4.0,7.0,49,0.00,,,-99.99,,2013-01-20 01:35:00,
2013-01-19 18:47:00,23.0,8.0,-100.00,SW,215,6.0,9.0,50,0.00,,,-99.99,,2013-01-20 01:47:00,
2013-01-19 19:03:00,22.0,7.0,-100.00,SW,220,6.0,9.0,50,0.00,,,-99.99,,2013-01-20 02:03:00,
2013-01-19 19:14:00,22.0,7.0,-100.00,SW,230,6.0,8.0,51,0.00,,,-99.99,,2013-01-20 02:14:00,
2013-01-19 19:26:00,23.0,8.0,-100.00,SW,230,5.0,7.0,50,0.00,,,-99.99,,2013-01-20 02:26:00,
2013-01-19 19:35:00,24.0,8.0,-100.00,WSW,250,3.0,7.0,50,0.00,,,-99.99,,2013-01-20 02:35:00,
2013-01-19 19:44:00,24.0,8.0,-100.00,SW,230,4.0,6.0,49,0.00,,,-99.99,,2013-01-20 02:44:00,
2013-01-19 19:59:00,24.0,7.0,-100.00,West,260,4.0,7.0,48,0.00,,,-99.99,,2013-01-20 02:59:00,
2013-01-19 20:07:00,24.0,7.0,-100.00,SW,235,4.0,7.0,47,0.00,,,-99.99,,2013-01-20 03:07:00,
2013-01-19 20:14:00,24.0,6.0,-100.00,WSW,250,6.0,6.0,47,0.00,,,-99.99,,2013-01-20 03:14:00,
2013-01-19 20:25:00,24.0,7.0,-100.00,WSW,240,2.0,6.0,47,0.00,,,-99.99,,2013-01-20 03:25:00,
2013-01-19 20:38:00,24.0,7.0,-100.00,West,280,1.0,6.0,47,0.00,,,-99.99,,2013-01-20 03:38:00,
2013-01-19 20:45:00,24.0,7.0,-100.00,SW,220,3.0,7.0,47,0.00,,,-99.99,,2013-01-20 03:45:00,
2013-01-19 20:57:00,24.0,7.0,-100.00,West,265,2.0,5.0,46,0.00,,,-99.99,,2013-01-20 03:57:00,
2013-01-19 21:04:00,21.0,5.0,-100.00,WSW,245,1.0,4.0,48,0.00,,,-99.99,,2013-01-20 04:04:00,
2013-01-19 21:15:00,21.0,6.0,-100.00,SW,235,2.0,6.0,50,0.00,,,-99.99,,2013-01-20 04:15:00,
2013-01-19 21:25:00,24.0,7.0,-100.00,SW,235,4.0,6.0,48,0.00,,,-99.99,,2013-01-20 04:25:00,
2013-01-19 21:35:00,23.0,7.0,-100.00,SSW,210,4.0,6.0,48,0.00,,,-99.99,,2013-01-20 04:35:00,
2013-01-19 21:44:00,20.0,5.0,-100.00,West,265,1.0,6.0,51,0.00,,,-99.99,,2013-01-20 04:44:00,
2013-01-19 21:54:00,17.0,4.0,-100.00,SSW,205,0.0,1.0,54,0.00,,,-99.99,,2013-01-20 04:54:00,
2013-01-19 22:04:00,17.0,4.0,-100.00,SW,225,1.0,4.0,55,0.00,,,-99.99,,2013-01-20 05:04:00,
2013-01-19 22:12:00,17.0,4.0,-100.00,West,280,1.0,4.0,56,0.00,,,-99.99,,2013-01-20 05:12:00,
2013-01-19 22:22:00,17.0,4.0,-100.00,WNW,290,1.0,4.0,57,0.00,,,-99.99,,2013-01-20 05:22:00,
2013-01-19 22:32:00,20.0,6.0,-100.00,West,265,2.0,4.0,55,0.00,,,-99.99,,2013-01-20 05:32:00,
2013-01-19 22:42:00,21.0,6.0,-100.00,North,5,1.0,4.0,52,0.00,,,-99.99,,2013-01-20 05:42:00,
2013-01-19 22:53:00,22.0,6.0,-100.00,NW,305,2.0,6.0,48,0.00,,,-99.99,,2013-01-20 05:53:00,
2013-01-19 23:02:00,24.0,6.0,-100.00,SW,230,1.0,7.0,45,0.00,,,-99.99,,2013-01-20 06:02:00,
2013-01-19 23:12:00,24.0,5.0,-100.00,West,260,4.0,7.0,43,0.00,,,-99.99,,2013-01-20 06:12:00,
2013-01-19 23:22:00,26.0,5.0,-100.00,WSW,255,4.0,6.0,41,0.00,,,-99.99,,2013-01-20 06:22:00,
2013-01-19 23:33:00,25.0,4.0,-100.00,West,265,3.0,7.0,40,0.00,,,-99.99,,2013-01-20 06:33:00,
2013-01-19 23:42:00,24.0,4.0,-100.00,SSW,210,3.0,7.0,40,0.00,,,-99.99,,2013-01-20 06:42:00,
2013-01-19 23:53:00,24.0,4.0,-100.00,WSW,245,4.0,7.0,42,0.00,,,-99.99,,2013-01-20 06:53:00,